Weather History for CWEZ - November, 2012

Change the Weather History Date:

Friday, November 16, 2012

  Actual Average Record
Temperature  
Mean Temperature 44 °F -  
Max Temperature 48 °F - - ()
Min Temperature 39 °F - - ()
Degree Days  
Heating Degree Days 22    
Moisture  
Dew Point 39 °F    
Average Humidity 84    
Maximum Humidity 94    
Minimum Humidity 73    
Precipitation  
Precipitation 0.00 in - - ()
Sea Level Pressure  
Sea Level Pressure 29.84 in    
Wind  
Wind Speed 7 mph ()    
Max Wind Speed 18 mph    
Max Gust Speed 17 mph    
T = Trace of Precipitation, MM = Missing Value Source: Averaged Metar Reports

Daily Weather History Graph

Daily Weather History Graph

Search for Another Location

Airport or City:

Trip Planner

Search our weather history database for the weather conditions in past years. The results will help you decide how hot, cold, wet, or windy it might be!

Date:

Astronomy

Nov. 16, 2012 Rise Set
Actual Time 7:23 AM PST 4:30 PM PST
Civil Twilight 6:48 AM PST 5:04 PM PST
Nautical Twilight 6:10 AM PST 5:43 PM PST
Astronomical Twilight 5:33 AM PST 6:20 PM PST
Moon 10:27 AM PST (11/16) 7:33 PM PST (11/16)
Length of Visible Light 10h 16m
Length of Day
9h 06m
Waxing Crescent, 12% of the Moon is Illuminated
Nov 16
Waxing Crescent
Nov 20
First Quarter
Nov 28
Full
Dec 6
Last Quarter
Dec 13
New

Hourly Weather History & Observations

Time (PST) Temp. Windchill Dew Point Humidity Pressure Visibility Wind Dir Wind Speed Gust Speed Precip Events Conditions
12:00 AM 40.1 °F - 38.3 °F 93% 29.94 in - NNE 2.3 mph - N/A   Unknown
1:00 AM 40.1 °F 38.0 °F 38.3 °F 93% 29.94 in - NNW 3.5 mph - N/A   Unknown
2:00 AM 40.6 °F - 39.0 °F 94% 29.93 in - NNW 2.3 mph - N/A   Unknown
3:00 AM 41.2 °F 38.2 °F 39.4 °F 93% 29.93 in - SSE 4.6 mph - N/A   Unknown
4:00 AM 41 °F - 39 °F 91% 29.91 in - South 9.2 mph - -  
4:00 AM 41.0 °F 35.2 °F 39.2 °F 93% 29.91 in - South 9.2 mph - N/A   Unknown
5:00 AM 40.6 °F 36.0 °F 38.1 °F 91% 29.91 in - SE 6.9 mph - N/A   Unknown
6:00 AM 40.6 °F 34.8 °F 38.1 °F 91% 29.88 in - SE 9.2 mph - N/A   Unknown
7:00 AM 40.8 °F 34.5 °F 37.8 °F 89% 29.88 in - SSE 10.4 mph - N/A   Unknown
8:00 AM 40.6 °F 34.3 °F 37.4 °F 88% 29.88 in - SSE 10.4 mph - N/A   Unknown
9:00 AM 41.4 °F 34.7 °F 37.2 °F 85% 29.90 in - South 11.5 mph - N/A   Unknown
10:00 AM 42 °F - 36 °F 73% 29.90 in - SSE 9.2 mph - -  
10:00 AM 41.5 °F 35.9 °F 36.3 °F 82% 29.90 in - SSE 9.2 mph - N/A   Unknown
11:00 AM 42.3 °F 35.9 °F 36.9 °F 81% 29.89 in - ESE 11.5 mph - N/A   Unknown
12:00 PM 43.2 °F 36.6 °F 37.9 °F 82% 29.87 in - SSE 12.7 mph - N/A   Unknown
1:00 PM 43.3 °F 36.8 °F 37.6 °F 80% 29.85 in - SSE 12.7 mph - N/A   Unknown
2:00 PM 43.2 °F 37.9 °F 37.6 °F 81% 29.84 in - SE 9.2 mph - N/A   Unknown
3:00 PM 43.2 °F 37.4 °F 37.6 °F 81% 29.81 in - East 10.4 mph - N/A   Unknown
4:00 PM 43 °F - 38 °F 77% 29.81 in - East 6.9 mph - -  
4:00 PM 43.2 °F 39.0 °F 38.3 °F 83% 29.81 in - East 6.9 mph - N/A   Unknown
5:00 PM 43.7 °F 38.1 °F 39.2 °F 84% 29.78 in - East 10.4 mph - N/A   Unknown
6:00 PM 47.3 °F - 39.2 °F 73% 29.75 in - SSE 16.1 mph - N/A   Unknown
7:00 PM 47.1 °F - 39.0 °F 73% 29.74 in - SE 15.0 mph - N/A   Unknown
8:00 PM 46.6 °F - 39.9 °F 78% 29.72 in - SE 18.4 mph - N/A   Unknown
9:00 PM 46.2 °F 39.3 °F 40.5 °F 80% 29.70 in - ESE 17.3 mph - N/A   Unknown
10:00 PM 47 °F - 41 °F 74% 29.68 in - SE 9.2 mph - -  
10:00 PM 46.9 °F - 41.4 °F 81% 29.68 in - SE 9.2 mph - N/A   Unknown
11:00 PM 47.8 °F - 41.4 °F 78% 29.66 in - South 10.4 mph 17.3 mph N/A   Unknown